Year,Month,Day,Hour,Minute,Value (Times are PST for temperature in C)
2021,04,15,00,00,7.00
2021,04,15,00,01,6.90
2021,04,15,00,02,6.90
2021,04,15,00,03,6.90
2021,04,15,00,04,6.90
2021,04,15,00,05,6.80
2021,04,15,00,06,6.80
2021,04,15,00,07,6.80
2021,04,15,00,08,6.70
2021,04,15,00,09,6.70
2021,04,15,00,10,6.70
2021,04,15,00,11,6.70
2021,04,15,00,12,6.70
2021,04,15,00,13,6.60
2021,04,15,00,14,6.60
2021,04,15,00,15,6.60
2021,04,15,00,16,6.60
2021,04,15,00,17,6.60
2021,04,15,00,18,6.60
2021,04,15,00,19,6.60
2021,04,15,00,20,6.50
2021,04,15,00,21,6.50
2021,04,15,00,22,6.60
2021,04,15,00,23,6.60
2021,04,15,00,24,6.60
2021,04,15,00,25,6.60
2021,04,15,00,26,6.60
2021,04,15,00,27,6.60
2021,04,15,00,28,6.60
2021,04,15,00,29,6.50
2021,04,15,00,30,6.50
2021,04,15,00,31,6.50
2021,04,15,00,32,6.40
2021,04,15,00,33,6.40
2021,04,15,00,34,6.40
2021,04,15,00,35,6.40
2021,04,15,00,36,6.30
2021,04,15,00,37,6.30
2021,04,15,00,38,6.30
2021,04,15,00,39,6.30
2021,04,15,00,40,6.30
2021,04,15,00,41,6.20
2021,04,15,00,42,6.20
2021,04,15,00,43,6.20
2021,04,15,00,44,6.20
2021,04,15,00,45,6.20
2021,04,15,00,46,6.20
2021,04,15,00,47,6.20
2021,04,15,00,48,6.20
2021,04,15,00,49,6.20
2021,04,15,00,50,6.20
2021,04,15,00,51,6.20
2021,04,15,00,52,6.20
2021,04,15,00,53,6.20
2021,04,15,00,54,6.20
2021,04,15,00,55,6.20
2021,04,15,00,56,6.20
2021,04,15,00,57,6.20
2021,04,15,00,58,6.20
2021,04,15,00,59,6.20
2021,04,15,01,00,6.20
2021,04,15,01,01,6.20
2021,04,15,01,02,6.10
2021,04,15,01,03,6.10
2021,04,15,01,04,6.10
2021,04,15,01,05,6.10
2021,04,15,01,06,6.00
2021,04,15,01,07,6.00
2021,04,15,01,08,6.00
2021,04,15,01,09,6.00
2021,04,15,01,10,5.90
2021,04,15,01,11,5.90
2021,04,15,01,12,5.90
2021,04,15,01,13,5.90
2021,04,15,01,14,5.90
2021,04,15,01,15,5.90
2021,04,15,01,16,5.90
2021,04,15,01,17,5.90
2021,04,15,01,18,5.90
2021,04,15,01,19,5.90
2021,04,15,01,20,5.90
2021,04,15,01,21,5.90
2021,04,15,01,22,5.80
2021,04,15,01,23,5.80
2021,04,15,01,24,5.80
2021,04,15,01,25,5.80
2021,04,15,01,26,5.80
2021,04,15,01,27,5.80
2021,04,15,01,28,5.80
2021,04,15,01,29,5.80
2021,04,15,01,30,5.80
2021,04,15,01,31,5.80
2021,04,15,01,32,5.70
2021,04,15,01,33,5.70
2021,04,15,01,34,5.70
2021,04,15,01,35,5.70
2021,04,15,01,36,5.70
2021,04,15,01,37,5.70
2021,04,15,01,38,5.70
2021,04,15,01,39,5.70
2021,04,15,01,40,5.70
2021,04,15,01,41,5.70
2021,04,15,01,42,5.70
2021,04,15,01,43,5.70
2021,04,15,01,44,5.70
2021,04,15,01,45,5.70
2021,04,15,01,46,5.70
2021,04,15,01,47,5.70
2021,04,15,01,48,5.70
2021,04,15,01,49,5.70
2021,04,15,01,50,5.60
2021,04,15,01,51,5.60
2021,04,15,01,52,5.60
2021,04,15,01,53,5.60
2021,04,15,01,54,5.60
2021,04,15,01,55,5.60
2021,04,15,01,56,5.60
2021,04,15,01,57,5.60
2021,04,15,01,58,5.50
2021,04,15,01,59,5.50
2021,04,15,02,00,5.50
2021,04,15,02,01,5.50
2021,04,15,02,02,5.60
2021,04,15,02,03,5.60
2021,04,15,02,04,5.60
2021,04,15,02,05,5.60
2021,04,15,02,06,5.60
2021,04,15,02,07,5.60
2021,04,15,02,08,5.60
2021,04,15,02,09,5.60
2021,04,15,02,10,5.60
2021,04,15,02,11,5.60
2021,04,15,02,12,5.60
2021,04,15,02,13,5.60
2021,04,15,02,14,5.60
2021,04,15,02,15,5.50
2021,04,15,02,16,5.50
2021,04,15,02,17,5.50
2021,04,15,02,18,5.50
2021,04,15,02,19,5.50
2021,04,15,02,20,5.40
2021,04,15,02,21,5.40
2021,04,15,02,22,5.40
2021,04,15,02,23,5.40
2021,04,15,02,24,5.40
2021,04,15,02,25,5.40
2021,04,15,02,26,5.40
2021,04,15,02,27,5.40
2021,04,15,02,28,5.40
2021,04,15,02,29,5.40
2021,04,15,02,30,5.40
2021,04,15,02,31,5.40
2021,04,15,02,32,5.40
2021,04,15,02,33,5.40
2021,04,15,02,34,5.40
2021,04,15,02,35,5.40
2021,04,15,02,36,5.40
2021,04,15,02,37,5.40
2021,04,15,02,38,5.40
2021,04,15,02,39,5.40
2021,04,15,02,40,5.40
2021,04,15,02,41,5.40
2021,04,15,02,42,5.40
2021,04,15,02,43,5.40
2021,04,15,02,44,5.40
2021,04,15,02,45,5.30
2021,04,15,02,46,5.30
2021,04,15,02,47,5.30
2021,04,15,02,48,5.30
2021,04,15,02,49,5.30
2021,04,15,02,50,5.30
2021,04,15,02,51,5.20
2021,04,15,02,52,5.20
2021,04,15,02,53,5.20
2021,04,15,02,54,5.20
2021,04,15,02,55,5.20
2021,04,15,02,56,5.20
2021,04,15,02,57,5.20
2021,04,15,02,58,5.20
2021,04,15,02,59,5.20
2021,04,15,03,00,5.20
2021,04,15,03,01,5.20
2021,04,15,03,02,5.20
2021,04,15,03,03,5.20
2021,04,15,03,04,5.20
2021,04,15,03,05,5.20
2021,04,15,03,06,5.20
2021,04,15,03,07,5.20
2021,04,15,03,08,5.20
2021,04,15,03,09,5.20
2021,04,15,03,10,5.20
2021,04,15,03,11,5.20
2021,04,15,03,12,5.20
2021,04,15,03,13,5.20
2021,04,15,03,14,5.10
2021,04,15,03,15,5.10
2021,04,15,03,16,5.10
2021,04,15,03,17,5.10
2021,04,15,03,18,5.10
2021,04,15,03,19,5.10
2021,04,15,03,20,5.10
2021,04,15,03,21,5.10
2021,04,15,03,22,5.00
2021,04,15,03,23,5.10
2021,04,15,03,24,5.00
2021,04,15,03,25,5.00
2021,04,15,03,26,5.00
2021,04,15,03,27,5.00
2021,04,15,03,28,5.00
2021,04,15,03,29,5.00
2021,04,15,03,30,5.00
2021,04,15,03,31,5.00
2021,04,15,03,32,5.00
2021,04,15,03,33,5.00
2021,04,15,03,34,5.00
2021,04,15,03,35,5.10
2021,04,15,03,36,5.10
2021,04,15,03,37,5.10
2021,04,15,03,38,5.10
2021,04,15,03,39,5.10
2021,04,15,03,40,5.10
2021,04,15,03,41,5.10
2021,04,15,03,42,5.00
2021,04,15,03,43,5.00
2021,04,15,03,44,5.00
2021,04,15,03,45,5.00
2021,04,15,03,46,5.00
2021,04,15,03,47,5.00
2021,04,15,03,48,5.00
2021,04,15,03,49,5.00
2021,04,15,03,50,5.00
2021,04,15,03,51,5.00
2021,04,15,03,52,5.00
2021,04,15,03,53,5.00
2021,04,15,03,54,5.00
2021,04,15,03,55,5.00
2021,04,15,03,56,5.00
2021,04,15,03,57,5.00
2021,04,15,03,58,5.00
2021,04,15,03,59,5.00
2021,04,15,04,00,5.00
2021,04,15,04,01,5.00
2021,04,15,04,02,5.00
2021,04,15,04,03,5.00
2021,04,15,04,04,5.00
2021,04,15,04,05,4.90
2021,04,15,04,06,4.90
2021,04,15,04,07,4.90
2021,04,15,04,08,4.90
2021,04,15,04,09,4.90
2021,04,15,04,10,4.90
2021,04,15,04,11,4.90
2021,04,15,04,12,4.90
2021,04,15,04,13,5.00
2021,04,15,04,14,5.00
2021,04,15,04,15,5.00
2021,04,15,04,16,5.00
2021,04,15,04,17,5.00
2021,04,15,04,18,5.00
2021,04,15,04,19,5.00
2021,04,15,04,20,5.00
2021,04,15,04,21,5.00
2021,04,15,04,22,5.10
2021,04,15,04,23,5.10
2021,04,15,04,24,5.10
2021,04,15,04,25,5.10
2021,04,15,04,26,5.10
2021,04,15,04,27,5.10
2021,04,15,04,28,5.10
2021,04,15,04,29,5.10
2021,04,15,04,30,5.10
2021,04,15,04,31,5.10
2021,04,15,04,32,5.10
2021,04,15,04,33,5.10
2021,04,15,04,34,5.10
2021,04,15,04,35,5.10
2021,04,15,04,36,5.10
2021,04,15,04,37,5.10
2021,04,15,04,38,5.10
2021,04,15,04,39,5.20
2021,04,15,04,40,5.20
2021,04,15,04,41,5.20
2021,04,15,04,42,5.20
2021,04,15,04,43,5.20
2021,04,15,04,44,5.20
2021,04,15,04,45,5.20
2021,04,15,04,46,5.20
2021,04,15,04,47,5.20
2021,04,15,04,48,5.20
2021,04,15,04,49,5.20
2021,04,15,04,50,5.10
2021,04,15,04,51,5.10
2021,04,15,04,52,5.10
2021,04,15,04,53,5.10
2021,04,15,04,54,5.00
2021,04,15,04,55,5.00
2021,04,15,04,56,5.00
2021,04,15,04,57,5.00
2021,04,15,04,58,4.90
2021,04,15,04,59,5.00
2021,04,15,05,00,4.90
2021,04,15,05,01,4.90
2021,04,15,05,02,4.90
2021,04,15,05,03,4.90
2021,04,15,05,04,4.90
2021,04,15,05,05,4.90
2021,04,15,05,06,4.90
2021,04,15,05,07,4.90
2021,04,15,05,08,4.90
2021,04,15,05,09,4.90
2021,04,15,05,10,4.90
2021,04,15,05,11,4.80
2021,04,15,05,12,4.80
2021,04,15,05,13,4.80
2021,04,15,05,14,4.80
2021,04,15,05,15,4.80
2021,04,15,05,16,4.80
2021,04,15,05,17,4.80
2021,04,15,05,18,4.80
2021,04,15,05,19,4.80
2021,04,15,05,20,4.80
2021,04,15,05,21,4.70
2021,04,15,05,22,4.70
2021,04,15,05,23,4.70
2021,04,15,05,24,4.70
2021,04,15,05,25,4.70
2021,04,15,05,26,4.70
2021,04,15,05,27,4.70
2021,04,15,05,28,4.70
2021,04,15,05,29,4.70
2021,04,15,05,30,4.70
2021,04,15,05,31,4.70
2021,04,15,05,32,4.70
2021,04,15,05,33,4.70
2021,04,15,05,34,4.70
2021,04,15,05,35,4.70
2021,04,15,05,36,4.60
2021,04,15,05,37,4.60
2021,04,15,05,38,4.60
2021,04,15,05,39,4.60
2021,04,15,05,40,4.60
2021,04,15,05,41,4.60
2021,04,15,05,42,4.60
2021,04,15,05,43,4.60
2021,04,15,05,44,4.50
2021,04,15,05,45,4.60
2021,04,15,05,46,4.60
2021,04,15,05,47,4.60
2021,04,15,05,48,4.60
2021,04,15,05,49,4.60
2021,04,15,05,50,4.60
2021,04,15,05,51,4.60
2021,04,15,05,52,4.60
2021,04,15,05,53,4.60
2021,04,15,05,54,4.60
2021,04,15,05,55,4.60
2021,04,15,05,56,4.60
2021,04,15,05,57,4.60
2021,04,15,05,58,4.50
2021,04,15,05,59,4.50
2021,04,15,06,00,4.50
2021,04,15,06,01,4.40
2021,04,15,06,02,4.40
2021,04,15,06,03,4.40
2021,04,15,06,04,4.40
2021,04,15,06,05,4.40
2021,04,15,06,06,4.40
2021,04,15,06,07,4.40
2021,04,15,06,08,4.40
2021,04,15,06,09,4.30
2021,04,15,06,10,4.30
2021,04,15,06,11,4.30
2021,04,15,06,12,4.30
2021,04,15,06,13,4.30
2021,04,15,06,14,4.30
2021,04,15,06,15,4.30
2021,04,15,06,16,4.30
2021,04,15,06,17,4.30
2021,04,15,06,18,4.30
2021,04,15,06,19,4.30
2021,04,15,06,20,4.30
2021,04,15,06,21,4.20
2021,04,15,06,22,4.20
2021,04,15,06,23,4.20
2021,04,15,06,24,4.20
2021,04,15,06,25,4.20
2021,04,15,06,26,4.20
2021,04,15,06,27,4.20
2021,04,15,06,28,4.20
2021,04,15,06,29,4.20
2021,04,15,06,30,4.20
2021,04,15,06,31,4.20
2021,04,15,06,32,4.20
2021,04,15,13,03,19.50
2021,04,15,13,04,19.50
2021,04,15,13,05,19.50
2021,04,15,13,06,19.50
2021,04,15,13,07,19.50
2021,04,15,13,08,19.50
2021,04,15,13,09,19.60
2021,04,15,13,10,19.60
2021,04,15,13,11,19.60
2021,04,15,13,12,19.60
2021,04,15,13,13,19.70
2021,04,15,13,14,19.70
2021,04,15,13,15,19.70
2021,04,15,13,16,19.80
2021,04,15,13,17,19.80
2021,04,15,13,18,19.90
2021,04,15,13,19,19.90
2021,04,15,13,20,20.00
2021,04,15,13,21,20.10
2021,04,15,13,22,20.10
2021,04,15,13,23,20.20
2021,04,15,13,24,20.20
2021,04,15,13,25,20.30
2021,04,15,13,26,20.30
2021,04,15,13,27,20.40
2021,04,15,13,28,20.50
2021,04,15,13,29,20.50
2021,04,15,13,30,20.60
2021,04,15,13,31,20.60
2021,04,15,13,32,20.60
2021,04,15,13,33,20.70
2021,04,15,13,34,20.80
2021,04,15,13,35,20.70
2021,04,15,13,36,20.80
2021,04,15,13,37,20.70
2021,04,15,13,38,20.70
2021,04,15,13,39,20.70
2021,04,15,13,40,20.80
2021,04,15,13,41,20.90
2021,04,15,13,42,21.10
2021,04,15,13,43,21.20
2021,04,15,13,44,21.20
2021,04,15,13,45,21.30
2021,04,15,13,46,21.30
2021,04,15,13,47,21.40
2021,04,15,13,48,21.60
2021,04,15,13,49,21.60
2021,04,15,13,50,21.60
2021,04,15,13,51,21.50
2021,04,15,13,52,21.50
2021,04,15,13,53,21.40
2021,04,15,13,54,21.30
2021,04,15,13,55,21.30
2021,04,15,13,56,21.30
2021,04,15,13,57,21.30
2021,04,15,13,58,21.40
2021,04,15,13,59,21.40
2021,04,15,14,00,21.50
2021,04,15,14,01,21.50
2021,04,15,14,02,21.50
2021,04,15,14,03,21.50
2021,04,15,14,04,21.50
2021,04,15,14,05,21.60
2021,04,15,14,06,21.50
2021,04,15,14,07,21.50
2021,04,15,14,08,21.60
2021,04,15,14,09,21.60
2021,04,15,14,10,21.60
2021,04,15,14,11,21.60
2021,04,15,14,12,21.60
2021,04,15,14,13,21.60
2021,04,15,14,14,21.70
2021,04,15,14,15,21.70
2021,04,15,14,16,21.70
2021,04,15,14,17,21.70
2021,04,15,14,18,21.70
2021,04,15,14,19,21.80
2021,04,15,14,20,21.80
2021,04,15,14,21,21.90
2021,04,15,14,22,21.90
2021,04,15,14,23,21.90
2021,04,15,14,24,21.90
2021,04,15,14,25,21.90
2021,04,15,14,26,22.00
2021,04,15,14,27,22.10
2021,04,15,14,28,22.30
2021,04,15,14,29,22.50
2021,04,15,14,30,22.60
2021,04,15,14,31,22.70
2021,04,15,14,32,22.80
2021,04,15,14,33,22.90
2021,04,15,14,34,23.00
2021,04,15,14,35,23.10
2021,04,15,14,36,23.20
2021,04,15,14,37,23.10
2021,04,15,14,38,23.00
2021,04,15,14,39,22.90
2021,04,15,14,40,22.90
2021,04,15,14,41,22.90
2021,04,15,14,42,22.80
2021,04,15,14,43,22.80
2021,04,15,14,44,22.80
2021,04,15,14,45,22.80
2021,04,15,14,46,22.80
2021,04,15,14,47,22.70
2021,04,15,14,48,22.60
2021,04,15,14,49,22.50
2021,04,15,14,50,22.40
2021,04,15,14,51,22.40
2021,04,15,14,52,22.50
2021,04,15,14,53,22.50
2021,04,15,14,54,22.40
2021,04,15,14,55,22.40
2021,04,15,14,56,22.40
2021,04,15,14,57,22.40
2021,04,15,14,58,22.30
2021,04,15,14,59,22.20
2021,04,15,15,00,22.20
2021,04,15,15,01,22.20
2021,04,15,15,02,22.30
2021,04,15,15,03,22.40
2021,04,15,15,04,22.40
2021,04,15,15,05,22.40
2021,04,15,15,06,22.40
2021,04,15,15,07,22.30
2021,04,15,15,08,22.30
2021,04,15,15,09,22.20
2021,04,15,15,10,22.20
2021,04,15,15,11,22.20
2021,04,15,15,12,22.20
2021,04,15,15,13,22.20
2021,04,15,15,14,22.20
2021,04,15,15,15,22.10
2021,04,15,15,16,22.10
2021,04,15,15,17,22.10
2021,04,15,15,18,22.10
2021,04,15,15,19,22.20
2021,04,15,15,20,22.10
2021,04,15,15,21,22.10
2021,04,15,15,22,22.10
2021,04,15,15,23,22.00
2021,04,15,15,24,22.00
2021,04,15,15,25,22.00
2021,04,15,15,26,22.10
2021,04,15,15,27,22.10
2021,04,15,15,28,22.00
2021,04,15,15,29,22.00
2021,04,15,15,30,22.00
2021,04,15,15,31,22.00
2021,04,15,15,32,22.00
2021,04,15,15,33,22.00
2021,04,15,15,34,22.00
2021,04,15,15,35,22.00
2021,04,15,15,36,22.00
2021,04,15,15,37,22.00
2021,04,15,15,38,22.00
2021,04,15,15,39,21.90
2021,04,15,15,40,21.90
2021,04,15,15,41,21.80
2021,04,15,15,42,21.70
2021,04,15,15,43,21.70
2021,04,15,15,44,21.60
2021,04,15,15,45,21.60
2021,04,15,15,46,21.70
2021,04,15,15,47,21.70
2021,04,15,15,48,21.80
2021,04,15,15,49,21.80
2021,04,15,15,50,21.80
2021,04,15,15,51,21.80
2021,04,15,15,52,21.80
2021,04,15,15,53,21.80
2021,04,15,15,54,21.80
2021,04,15,15,55,21.80
2021,04,15,15,56,21.80
2021,04,15,15,57,21.80
2021,04,15,15,58,21.80
2021,04,15,15,59,21.90
2021,04,15,16,00,21.90
2021,04,15,16,01,21.90
2021,04,15,16,02,21.90
2021,04,15,16,03,21.90
2021,04,15,16,04,21.90
2021,04,15,16,05,21.90
2021,04,15,16,06,22.00
2021,04,15,16,07,22.00
2021,04,15,16,08,22.00
2021,04,15,16,09,22.00
2021,04,15,16,10,22.00
2021,04,15,16,11,21.90
2021,04,15,16,12,21.90
2021,04,15,16,13,21.90
2021,04,15,16,14,21.90
2021,04,15,16,15,21.90
2021,04,15,16,16,21.90
2021,04,15,16,17,21.90
2021,04,15,16,18,21.90
2021,04,15,16,19,21.90
2021,04,15,16,20,21.80
2021,04,15,16,21,21.80
2021,04,15,16,22,21.80
2021,04,15,16,23,21.80
2021,04,15,16,24,21.80
2021,04,15,16,25,21.90
2021,04,15,16,26,21.90
2021,04,15,16,27,21.90
2021,04,15,16,28,21.90
2021,04,15,16,29,21.90
2021,04,15,16,30,21.90
2021,04,15,16,31,21.90
2021,04,15,16,32,21.90
2021,04,15,16,33,21.80
2021,04,15,16,34,21.80
2021,04,15,16,35,21.80
2021,04,15,16,36,21.70
2021,04,15,16,37,21.70
2021,04,15,16,38,21.70
2021,04,15,16,39,21.60
2021,04,15,16,40,21.60
2021,04,15,16,41,21.60
2021,04,15,16,42,21.60
2021,04,15,16,43,21.60
2021,04,15,16,44,21.60
2021,04,15,16,45,21.70
2021,04,15,16,46,21.70
2021,04,15,16,47,21.70
2021,04,15,16,48,21.70
2021,04,15,16,49,21.70
2021,04,15,16,50,21.70
2021,04,15,16,51,21.70
2021,04,15,16,52,21.70
2021,04,15,16,53,21.70
2021,04,15,16,54,21.70
2021,04,15,16,55,21.70
2021,04,15,16,56,21.70
2021,04,15,16,57,21.70
2021,04,15,16,58,21.70
2021,04,15,16,59,21.70
2021,04,15,17,00,21.60
2021,04,15,17,01,21.60
2021,04,15,17,02,21.60
2021,04,15,17,03,21.60
2021,04,15,17,04,21.60
2021,04,15,17,05,21.70
2021,04,15,17,06,21.70
2021,04,15,17,07,21.70
2021,04,15,17,08,21.70
2021,04,15,17,09,21.80
2021,04,15,17,10,21.80
2021,04,15,17,11,21.80
2021,04,15,17,12,21.90
2021,04,15,17,13,21.90
2021,04,15,17,14,21.90
2021,04,15,17,15,21.90
2021,04,15,17,16,21.90
2021,04,15,17,17,21.90
2021,04,15,17,18,21.90
2021,04,15,17,19,21.90
2021,04,15,17,20,21.90
2021,04,15,17,21,21.90
2021,04,15,17,22,21.90
2021,04,15,17,23,21.90
2021,04,15,17,24,21.90
2021,04,15,17,25,21.90
2021,04,15,17,26,21.80
2021,04,15,17,27,21.80
2021,04,15,17,28,21.80
2021,04,15,17,29,21.80
2021,04,15,17,30,21.80
2021,04,15,17,31,21.80
2021,04,15,17,32,21.70
2021,04,15,17,33,21.70
2021,04,15,17,34,21.70
2021,04,15,17,35,21.70
2021,04,15,17,36,21.70
2021,04,15,17,37,21.70
2021,04,15,17,38,21.70
2021,04,15,17,39,21.60
2021,04,15,17,40,21.60
2021,04,15,17,41,21.60
2021,04,15,17,42,21.50
2021,04,15,17,43,21.50
2021,04,15,17,44,21.50
2021,04,15,17,45,21.40
2021,04,15,17,46,21.40
2021,04,15,17,47,21.40
2021,04,15,17,48,21.40
2021,04,15,17,49,21.40
2021,04,15,17,50,21.30
2021,04,15,17,51,21.30
2021,04,15,17,52,21.30
2021,04,15,17,53,21.30
2021,04,15,17,54,21.30
2021,04,15,17,55,21.20
2021,04,15,17,56,21.20
2021,04,15,17,57,21.20
2021,04,15,17,58,21.20
2021,04,15,17,59,21.20
2021,04,15,18,00,21.20
2021,04,15,18,01,21.20
2021,04,15,18,02,21.20
2021,04,15,18,03,21.20
2021,04,15,18,04,21.20
2021,04,15,18,05,21.10
2021,04,15,18,06,21.10
2021,04,15,18,07,21.10
2021,04,15,18,08,21.10
2021,04,15,18,09,21.10
2021,04,15,18,10,21.00
2021,04,15,18,11,21.00
2021,04,15,18,12,21.00
2021,04,15,18,13,21.00
2021,04,15,18,14,21.00
2021,04,15,18,15,21.00
2021,04,15,18,16,21.00
2021,04,15,18,17,21.00
2021,04,15,18,18,21.00
2021,04,15,18,19,20.90
2021,04,15,18,20,20.90
2021,04,15,18,21,20.90
2021,04,15,18,22,20.90
2021,04,15,18,23,20.90
2021,04,15,18,24,20.90
2021,04,15,18,25,20.90
2021,04,15,18,26,20.90
2021,04,15,18,27,20.90
2021,04,15,18,28,20.80
2021,04,15,18,29,20.80
2021,04,15,18,30,20.80
2021,04,15,18,31,20.80
2021,04,15,18,32,20.80
2021,04,15,18,33,20.80
2021,04,15,18,34,20.70
2021,04,15,18,35,20.70
2021,04,15,18,36,20.70
2021,04,15,18,37,20.70
2021,04,15,18,38,20.70
2021,04,15,18,39,20.70
2021,04,15,18,40,20.80
2021,04,15,18,41,20.80
2021,04,15,18,42,20.80
2021,04,15,18,43,20.90
2021,04,15,18,44,20.90
2021,04,15,18,45,20.90
2021,04,15,18,46,20.90
2021,04,15,18,47,20.90
2021,04,15,18,48,20.90
2021,04,15,18,49,20.90
2021,04,15,18,50,20.90
2021,04,15,18,51,20.90
2021,04,15,18,52,20.80
2021,04,15,18,53,20.80
2021,04,15,18,54,20.80
2021,04,15,18,55,20.90
2021,04,15,18,56,20.90
2021,04,15,18,57,20.90
2021,04,15,18,58,20.90
2021,04,15,18,59,20.80
2021,04,15,19,00,20.80
2021,04,15,19,01,20.80
2021,04,15,19,02,20.80
2021,04,15,19,03,20.70
2021,04,15,19,04,20.70
2021,04,15,19,05,20.60
2021,04,15,19,06,20.50
2021,04,15,19,07,20.50
2021,04,15,19,08,20.50
2021,04,15,19,09,20.50
2021,04,15,19,10,20.30
2021,04,15,19,11,19.90
2021,04,15,19,12,19.70
2021,04,15,19,13,19.60
2021,04,15,19,14,19.50
2021,04,15,19,15,19.30
2021,04,15,19,16,19.20
2021,04,15,19,17,19.10
2021,04,15,19,18,18.90
2021,04,15,19,19,18.80
2021,04,15,19,20,18.70
2021,04,15,19,21,18.60
2021,04,15,19,22,18.50
2021,04,15,19,23,18.40
2021,04,15,19,24,18.30
2021,04,15,19,25,18.20
2021,04,15,19,26,18.20
2021,04,15,19,27,18.00
2021,04,15,19,28,17.90
2021,04,15,19,29,17.80
2021,04,15,19,30,17.70
2021,04,15,19,31,17.70
2021,04,15,19,32,17.60
2021,04,15,19,33,17.50
2021,04,15,19,34,17.40
2021,04,15,19,35,17.30
2021,04,15,19,36,17.30
2021,04,15,19,37,17.20
2021,04,15,19,38,17.10
2021,04,15,19,39,17.00
2021,04,15,19,40,16.90
2021,04,15,19,41,16.80
2021,04,15,19,42,16.80
2021,04,15,19,43,16.70
2021,04,15,19,44,16.60
2021,04,15,19,45,16.50
2021,04,15,19,46,16.40
2021,04,15,19,47,16.30
2021,04,15,19,48,16.20
2021,04,15,19,49,16.20
2021,04,15,19,50,16.10
2021,04,15,19,51,16.00
2021,04,15,19,52,16.00
2021,04,15,19,53,15.90
2021,04,15,19,54,15.80
2021,04,15,19,55,15.80
2021,04,15,19,56,15.70
2021,04,15,19,57,15.70
2021,04,15,19,58,15.60
2021,04,15,19,59,15.50
2021,04,15,20,00,15.50
2021,04,15,20,01,15.40
2021,04,15,20,02,15.30
2021,04,15,20,03,15.30
2021,04,15,20,04,15.20
2021,04,15,20,05,15.10
2021,04,15,20,06,15.00
2021,04,15,20,07,14.90
2021,04,15,20,08,14.80
2021,04,15,20,09,14.80
2021,04,15,20,10,14.70
2021,04,15,20,11,14.70
2021,04,15,20,12,14.70
2021,04,15,20,13,14.60
2021,04,15,20,14,14.60
2021,04,15,20,15,14.50
2021,04,15,20,16,14.50
2021,04,15,20,17,14.40
2021,04,15,20,18,14.40
2021,04,15,20,19,14.30
2021,04,15,20,20,14.30
2021,04,15,20,21,14.20
2021,04,15,20,22,14.20
2021,04,15,20,23,14.20
2021,04,15,20,24,14.10
2021,04,15,20,25,14.10
2021,04,15,20,26,14.00
2021,04,15,20,27,14.00
2021,04,15,20,28,13.90
2021,04,15,20,29,13.90
2021,04,15,20,30,13.80
2021,04,15,20,31,13.70
2021,04,15,20,32,13.70
2021,04,15,20,33,13.60
2021,04,15,20,34,13.50
2021,04,15,20,35,13.40
2021,04,15,20,36,13.40
2021,04,15,20,37,13.30
2021,04,15,20,38,13.20
2021,04,15,20,39,13.20
2021,04,15,20,40,13.10
2021,04,15,20,41,13.00
2021,04,15,20,42,13.00
2021,04,15,20,43,12.90
2021,04,15,20,44,12.90
2021,04,15,20,45,12.90
2021,04,15,20,46,12.80
2021,04,15,20,47,12.80
2021,04,15,20,48,12.80
2021,04,15,20,49,12.70
2021,04,15,20,50,12.70
2021,04,15,20,51,12.70
2021,04,15,20,52,12.60
2021,04,15,20,53,12.60
2021,04,15,20,54,12.60
2021,04,15,20,55,12.50
2021,04,15,20,56,12.50
2021,04,15,20,57,12.50
2021,04,15,20,58,12.40
2021,04,15,20,59,12.40
2021,04,15,21,00,12.40
2021,04,15,21,01,12.30
2021,04,15,21,02,12.30
2021,04,15,21,03,12.30
2021,04,15,21,04,12.30
2021,04,15,21,05,12.30
2021,04,15,21,06,12.30
2021,04,15,21,07,12.20
2021,04,15,21,08,12.20
2021,04,15,21,09,12.20
2021,04,15,21,10,12.10
2021,04,15,21,11,12.10
2021,04,15,21,12,12.00
2021,04,15,21,13,12.00
2021,04,15,21,14,11.90
2021,04,15,21,15,11.90
2021,04,15,21,16,11.80
2021,04,15,21,17,11.80
2021,04,15,21,18,11.70
2021,04,15,21,19,11.70
2021,04,15,21,20,11.60
2021,04,15,21,21,11.60
2021,04,15,21,22,11.50
2021,04,15,21,23,11.50
2021,04,15,21,24,11.50
2021,04,15,21,25,11.50
2021,04,15,21,26,11.50
2021,04,15,21,27,11.50
2021,04,15,21,28,11.40
2021,04,15,21,29,11.40
2021,04,15,21,30,11.40
2021,04,15,21,31,11.40
2021,04,15,21,32,11.40
2021,04,15,21,33,11.40
2021,04,15,21,34,11.40
2021,04,15,21,35,11.40
2021,04,15,21,36,11.40
2021,04,15,21,37,11.40
2021,04,15,21,38,11.40
2021,04,15,21,39,11.40
2021,04,15,21,40,11.30
2021,04,15,21,41,11.30
2021,04,15,21,42,11.30
2021,04,15,21,43,11.20
2021,04,15,21,44,11.10
2021,04,15,21,45,11.10
2021,04,15,21,46,11.00
2021,04,15,21,47,11.00
2021,04,15,21,48,10.90
2021,04,15,21,49,10.90
2021,04,15,21,50,10.80
2021,04,15,21,51,10.80
2021,04,15,21,52,10.80
2021,04,15,21,53,10.70
2021,04,15,21,54,10.70
2021,04,15,21,55,10.70
2021,04,15,21,56,10.70
2021,04,15,21,57,10.70
2021,04,15,21,58,10.70
2021,04,15,21,59,10.70
2021,04,15,22,00,10.70
2021,04,15,22,01,10.70
2021,04,15,22,02,10.70
2021,04,15,22,03,10.70
2021,04,15,22,04,10.70
2021,04,15,22,05,10.70
2021,04,15,22,06,10.60
2021,04,15,22,07,10.60
2021,04,15,22,08,10.60
2021,04,15,22,09,10.50
2021,04,15,22,10,10.50
2021,04,15,22,11,10.50
2021,04,15,22,12,10.40
2021,04,15,22,13,10.40
2021,04,15,22,14,10.40
2021,04,15,22,15,10.40
2021,04,15,22,16,10.30
2021,04,15,22,17,10.30
2021,04,15,22,18,10.30
2021,04,15,22,19,10.30
2021,04,15,22,20,10.30
2021,04,15,22,21,10.20
2021,04,15,22,22,10.20
2021,04,15,22,23,10.20
2021,04,15,22,24,10.20
2021,04,15,22,25,10.20
2021,04,15,22,26,10.20
2021,04,15,22,27,10.20
2021,04,15,22,28,10.20
2021,04,15,22,29,10.10
2021,04,15,22,30,10.10
2021,04,15,22,31,10.00
2021,04,15,22,32,9.90
2021,04,15,22,33,9.90
2021,04,15,22,34,9.80
2021,04,15,22,35,9.80
2021,04,15,22,36,9.80
2021,04,15,22,37,9.70
2021,04,15,22,38,9.70
2021,04,15,22,39,9.70
2021,04,15,22,40,9.60
2021,04,15,22,41,9.60
2021,04,15,22,42,9.60
2021,04,15,22,43,9.60
2021,04,15,22,44,9.60
2021,04,15,22,45,9.50
2021,04,15,22,46,9.50
2021,04,15,22,47,9.40
2021,04,15,22,48,9.40
2021,04,15,22,49,9.40
2021,04,15,22,50,9.40
2021,04,15,22,51,9.30
2021,04,15,22,52,9.30
2021,04,15,22,53,9.30
2021,04,15,22,54,9.30
2021,04,15,22,55,9.30
2021,04,15,22,56,9.30
2021,04,15,22,57,9.30
2021,04,15,22,58,9.30
2021,04,15,22,59,9.30
2021,04,15,23,00,9.30
2021,04,15,23,01,9.30
2021,04,15,23,02,9.30
2021,04,15,23,03,9.40
2021,04,15,23,04,9.40
2021,04,15,23,05,9.40
2021,04,15,23,06,9.40
2021,04,15,23,07,9.30
2021,04,15,23,08,9.30
2021,04,15,23,09,9.30
2021,04,15,23,10,9.30
2021,04,15,23,11,9.30
2021,04,15,23,12,9.20
2021,04,15,23,13,9.20
2021,04,15,23,14,9.20
2021,04,15,23,15,9.20
2021,04,15,23,16,9.10
2021,04,15,23,17,9.10
2021,04,15,23,18,9.10
2021,04,15,23,19,9.00
2021,04,15,23,20,9.00
2021,04,15,23,21,9.00
2021,04,15,23,22,9.00
2021,04,15,23,23,8.90
2021,04,15,23,24,8.90
2021,04,15,23,25,8.90
2021,04,15,23,26,8.80
2021,04,15,23,27,8.80
2021,04,15,23,28,8.80
2021,04,15,23,29,8.80
2021,04,15,23,30,8.80
2021,04,15,23,31,8.80
2021,04,15,23,32,8.70
2021,04,15,23,33,8.70
2021,04,15,23,34,8.70
2021,04,15,23,35,8.70
2021,04,15,23,36,8.70
2021,04,15,23,37,8.70
2021,04,15,23,38,8.70
2021,04,15,23,39,8.70
2021,04,15,23,40,8.70
2021,04,15,23,41,8.70
2021,04,15,23,42,8.70
2021,04,15,23,43,8.70
2021,04,15,23,44,8.70
2021,04,15,23,45,8.70
2021,04,15,23,46,8.70
2021,04,15,23,47,8.60
2021,04,15,23,48,8.60
2021,04,15,23,49,8.60
2021,04,15,23,50,8.60
2021,04,15,23,51,8.60
2021,04,15,23,52,8.60
2021,04,15,23,53,8.60
2021,04,15,23,54,8.60
2021,04,15,23,55,8.60
2021,04,15,23,56,8.60
2021,04,15,23,57,8.50
2021,04,15,23,58,8.50
2021,04,15,23,59,8.50
